Buffalo, NY

1:37 PM EST on November 22, 2019 (GMT -0500)
Buffalo Niagara International

Weather History for KBUF - October, 2019

Change the Weather History Date:

Friday, October 18, 2019

  Actual Average Record
Temperature  
Mean Temperature 43 °F 50 °F  
Max Temperature 49 °F 58 °F 82 °F (1947)
Min Temperature 36 °F 42 °F 27 °F (1972)
Degree Days  
Heating Degree Days 22 15  
Month to date heating degree days 221 219  
Since 1 July heating degree days 266 381  
Cooling Degree Days 0 0  
Month to date cooling degree days 7 0  
Year to date cooling degree days 604 540  
Moisture  
Dew Point 36 °F    
Average Humidity 79    
Maximum Humidity 92    
Minimum Humidity 65    
Precipitation  
Precipitation 0.00 in 0.11 in 1.56 in (1937)
Month to date precipitation 2.67 2.12  
Year to date precipitation 37.32 31.18  
Snow  
Snow 0.00 in 0.00 in 2.30 in (1972)
Month to date snowfall 0.0 0.3  
Since 1 July snowfall 0.0 0.3  
Since 1 September snowfall 0.0 0.3  
Snow Depth 0.00 in    
Sea Level Pressure  
Sea Level Pressure 29.99 in    
Wind  
Wind Speed 8 mph (West)    
Max Wind Speed 16 mph    
Max Gust Speed 20 mph    
Visibility 10 miles    
Events      
T = Trace of Precipitation, MM = Missing Value Source: NWS Daily Summary

Daily Weather History Graph

Daily Weather History Graph

Search for Another Location

Airport or City:

Astronomy

Oct. 18, 2019 Rise Set
Actual Time 7:31 AM EDT 6:27 PM EDT
Civil Twilight 7:02 AM EDT 6:56 PM EDT
Nautical Twilight 6:30 AM EDT 7:29 PM EDT
Astronomical Twilight 5:57 AM EDT 8:02 PM EDT
Moon 9:37 PM EDT (10/18) 12:08 PM EDT (10/18)
Length of Visible Light 11h 53m
Length of Day
10h 56m
Waning Gibbous, 79% of the Moon is Illuminated
Oct 18
Waning Gibbous
Oct 21
Last Quarter
Oct 27
New
Nov 4
First Quarter
Nov 12
Full

Hourly Weather History & Observations

Time (EDT) Temp. Windchill Dew Point Humidity Pressure Visibility Wind Dir Wind Speed Gust Speed Precip Events Conditions
12:54 AM 44.1 °F 39.5 °F 37.0 °F 76% 29.86 in 10.0 mi NW 8.1 mph - N/A   Overcast
1:20 AM 44.1 °F 38.1 °F 37.0 °F 76% 29.84 in 10.0 mi WNW 11.5 mph - N/A   Overcast
1:54 AM 44.1 °F 37.7 °F 36.0 °F 73% 29.87 in 10.0 mi WNW 12.7 mph - N/A   Overcast
2:54 AM 43.0 °F 38.2 °F 36.0 °F 76% 29.88 in 10.0 mi WNW 8.1 mph - N/A   Overcast
3:54 AM 42.1 °F 37.7 °F 34.0 °F 73% 29.90 in 10.0 mi WNW 6.9 mph - N/A   Mostly Cloudy
4:54 AM 41.0 °F 35.8 °F 37.9 °F 89% 29.92 in 10.0 mi West 8.1 mph - N/A   Scattered Clouds
5:54 AM 42.1 °F 36.6 °F 37.9 °F 85% 29.95 in 10.0 mi West 9.2 mph - N/A   Overcast
6:24 AM 42.1 °F 36.6 °F 37.9 °F 85% 29.94 in 10.0 mi West 9.2 mph - N/A   Overcast
6:54 AM 42.1 °F 36.1 °F 37.0 °F 82% 29.97 in 10.0 mi West 10.4 mph - N/A   Mostly Cloudy
7:20 AM 42.1 °F 37.1 °F 37.0 °F 82% 29.96 in 10.0 mi WNW 8.1 mph - N/A   Mostly Cloudy
7:54 AM 42.1 °F 37.1 °F 37.9 °F 85% 29.99 in 10.0 mi WNW 8.1 mph - N/A   Mostly Cloudy
8:21 AM 42.1 °F 37.7 °F 37.0 °F 82% 29.97 in 10.0 mi WNW 6.9 mph - N/A   Mostly Cloudy
8:54 AM 42.1 °F 38.4 °F 37.0 °F 82% 30.00 in 10.0 mi WNW 5.8 mph - N/A   Mostly Cloudy
9:54 AM 42.1 °F 35.7 °F 36.0 °F 79% 30.02 in 10.0 mi North 11.5 mph - N/A   Mostly Cloudy
10:54 AM 44.1 °F 38.6 °F 36.0 °F 73% 30.04 in 10.0 mi NNW 10.4 mph - N/A   Mostly Cloudy
11:54 AM 45.0 °F 40.1 °F 35.1 °F 68% 30.04 in 10.0 mi WNW 9.2 mph - N/A   Mostly Cloudy
12:50 PM 46.4 °F 41.1 °F 35.6 °F 66% 30.03 in 10.0 mi WNW 11.5 mph - N/A   Mostly Cloudy
12:54 PM 46.0 °F 40.6 °F 35.1 °F 66% 30.04 in 10.0 mi WNW 11.5 mph - N/A   Mostly Cloudy
1:54 PM 46.9 °F - 35.1 °F 63% 30.03 in 10.0 mi WNW 9.2 mph - N/A   Scattered Clouds
2:54 PM 46.9 °F - 35.1 °F 63% 30.04 in 10.0 mi West 8.1 mph - N/A   Mostly Cloudy
3:54 PM 46.9 °F - 36.0 °F 66% 30.03 in 10.0 mi West 5.8 mph - N/A   Scattered Clouds
4:54 PM 46.9 °F - 36.0 °F 66% 30.04 in 10.0 mi SW 10.4 mph - N/A   Scattered Clouds
5:54 PM 46.0 °F 40.6 °F 36.0 °F 68% 30.04 in 10.0 mi SW 11.5 mph - N/A   Partly Cloudy
6:54 PM 44.1 °F 42.5 °F 36.0 °F 73% 30.04 in 10.0 mi SW 3.5 mph - N/A   Partly Cloudy
7:54 PM 43.0 °F 40.3 °F 37.0 °F 80% 30.05 in 10.0 mi South 4.6 mph - N/A   Partly Cloudy
8:54 PM 39.9 °F 36.7 °F 36.0 °F 86% 30.06 in 10.0 mi SSE 4.6 mph - N/A   Partly Cloudy
9:54 PM 39.0 °F 35.7 °F 36.0 °F 89% 30.07 in 10.0 mi SSE 4.6 mph - N/A   Partly Cloudy
11:54 PM 37.0 °F - 35.1 °F 93% 30.07 in 10.0 mi Calm Calm - N/A   Partly Cloudy